Weather History for Parkersburg, WV

Change the Weather History Date:

Saturday, March 3, 2012

  Actual Average Record
Temperature  
Mean Temperature 46 °F 39 °F  
Max Temperature 56 °F 49 °F 79 °F (1974)
Min Temperature 35 °F 29 °F -5 °F (1980)
Degree Days  
Heating Degree Days 19 26  
Month to date heating degree days 57 79  
Since 1 July heating degree days 3383 3869  
Cooling Degree Days 0 0  
Month to date cooling degree days 0 0  
Year to date cooling degree days 0 0  
Moisture  
Dew Point 28 °F    
Average Humidity 55    
Maximum Humidity 72    
Minimum Humidity 38    
Precipitation  
Precipitation 0.01 in 0.10 in 0.05 in (2004)
Month to date precipitation 0.28 0.31  
Year to date precipitation 7.39 5.96  
Sea Level Pressure  
Sea Level Pressure 29.77 in    
Wind  
Wind Speed 12 mph (West)    
Max Wind Speed 21 mph    
Max Gust Speed 31 mph    
Visibility 10 miles    
Events      
T = Trace of Precipitation, MM = Missing Value Source: NWS Daily Summary

Daily Weather History Graph

Daily Weather History Graph

Search for Another Location

Airport:

Trip Planner

Search our weather history database for the weather conditions in past years. The results will help you decide how hot, cold, wet, or windy it might be!

Date:

Astronomy

Mar. 03, 2012 Rise Set
Actual Time 6:54 AM EST 6:20 PM EST
Civil Twilight 6:28 AM EST 6:47 PM EST
Nautical Twilight 5:57 AM EST 7:18 PM EST
Astronomical Twilight 5:25 AM EST 7:49 PM EST
Moon 1:30 PM EST (3/3) 3:29 AM EST (3/3)
Length of Visible Light 12h 19m
Length of Day
11h 25m
Waxing Gibbous, 75% of the Moon is Illuminated
Mar 3
Waxing Gibbous
Mar 8
Full
Mar 14
Last Quarter
Mar 22
New
Mar 30
First Quarter

Hourly Weather History & Observations

Time (EST) Temp. Windchill Dew Point Humidity Pressure Visibility Wind Dir Wind Speed Gust Speed Precip Events Conditions
12:53 AM 54.0 °F - 41.0 °F 62% 29.59 in 10.0 mi West 13.8 mph 19.6 mph N/A   Scattered Clouds
1:53 AM 46.9 °F - 37.0 °F 68% 29.64 in 10.0 mi West 15.0 mph 20.7 mph 0.01 in   Overcast
2:53 AM 44.1 °F 35.9 °F 35.1 °F 71% 29.68 in 10.0 mi West 19.6 mph 27.6 mph N/A   Mostly Cloudy
3:25 AM 42.8 °F 35.4 °F 33.8 °F 70% 29.69 in 10.0 mi West 15.0 mph 21.9 mph N/A   Overcast
3:38 AM 42.8 °F 36.2 °F 32.0 °F 66% 29.69 in 10.0 mi West 12.7 mph 25.3 mph N/A   Mostly Cloudy
3:53 AM 42.1 °F 34.9 °F 30.9 °F 65% 29.70 in 10.0 mi West 13.8 mph 23.0 mph N/A   Mostly Cloudy
4:53 AM 39.9 °F 32.5 °F 28.9 °F 65% 29.74 in 10.0 mi West 12.7 mph 21.9 mph N/A   Partly Cloudy
5:53 AM 37.9 °F 30.9 °F 27.0 °F 65% 29.78 in 10.0 mi WSW 10.4 mph - N/A   Clear
6:53 AM 37.9 °F 31.5 °F 28.0 °F 68% 29.79 in 10.0 mi WSW 9.2 mph - N/A   Clear
7:53 AM 37.9 °F 29.6 °F 28.0 °F 68% 29.79 in 10.0 mi WSW 13.8 mph 23.0 mph N/A   Clear
8:53 AM 39.0 °F 31.0 °F 28.0 °F 65% 29.80 in 10.0 mi WSW 13.8 mph 19.6 mph N/A   Clear
9:53 AM 41.0 °F 35.8 °F 27.0 °F 57% 29.81 in 10.0 mi WSW 8.1 mph 24.2 mph N/A   Mostly Cloudy
10:53 AM 43.0 °F 36.0 °F 27.0 °F 53% 29.81 in 10.0 mi West 13.8 mph 24.2 mph N/A   Mostly Cloudy
11:53 AM 46.4 °F 39.5 °F 26.6 °F 46% 29.78 in 10.0 mi West 17.3 mph 25.3 mph N/A   Mostly Cloudy
12:53 PM 48.0 °F - 27.0 °F 44% 29.77 in 10.0 mi West 12.7 mph 26.5 mph N/A   Mostly Cloudy
1:53 PM 46.0 °F 39.3 °F 24.1 °F 42% 29.76 in 10.0 mi West 16.1 mph 28.8 mph N/A   Mostly Cloudy
2:53 PM 46.9 °F - 24.1 °F 41% 29.75 in 10.0 mi West 15.0 mph 23.0 mph N/A   Scattered Clouds
3:53 PM 46.9 °F - 23.0 °F 39% 29.76 in 10.0 mi WSW 12.7 mph 27.6 mph N/A   Mostly Cloudy
4:53 PM 46.9 °F - 23.0 °F 39% 29.75 in 10.0 mi WSW 12.7 mph 23.0 mph N/A   Partly Cloudy
5:53 PM 45.0 °F 38.5 °F 23.0 °F 42% 29.79 in 10.0 mi West 13.8 mph 20.7 mph N/A   Mostly Cloudy
6:53 PM 43.0 °F 36.8 °F 24.1 °F 47% 29.82 in 10.0 mi WNW 11.5 mph - N/A   Partly Cloudy
7:53 PM 39.9 °F 34.5 °F 26.1 °F 58% 29.83 in 10.0 mi NW 8.1 mph - N/A   Mostly Cloudy
8:53 PM 37.9 °F 33.5 °F 25.0 °F 60% 29.85 in 10.0 mi WNW 5.8 mph - N/A   Mostly Cloudy
9:53 PM 36.0 °F 29.6 °F 23.0 °F 59% 29.86 in 10.0 mi WNW 8.1 mph - N/A   Mostly Cloudy
10:53 PM 36.0 °F 30.3 °F 21.9 °F 57% 29.88 in 10.0 mi West 6.9 mph - N/A   Overcast
11:53 PM 35.1 °F 31.0 °F 21.0 °F 57% 29.87 in 10.0 mi West 4.6 mph - N/A   Overcast